This demonstration page uses our WeatherBlox Daily Observations layout. Learn more.

Left ArrowRight Arrow

Hourly Observations for December 12, 2017

Temp ( °F °C ) Dew Point ( °F °C ) Humidity (%) Winds ( mph kmh ) Pressure ( in mb ) Visibility ( mi km ) Precip ( " mm )
12:53 am 00:53 Clear 33 0.6 22 -5.6 64 64 N 9 15 30.31 1027 10 16 0.00 0.00
1:53 am 01:53 Clear 35 1.7 22 -5.6 59 59 N 9 15 30.32 1027 10 16 0.00 0.00
2:53 am 02:53 Clear 33 0.6 21 -6.1 61 61 NNW 9 15 30.35 1028 10 16 0.00 0.00
3:53 am 03:53 Clear 32 0 20 -6.7 61 61 N 8 13 30.37 1029 10 16 0.00 0.00
4:53 am 04:53 Clear 32 0 20 -6.7 61 61 NNW 10 17 30.40 1029 10 16 0.00 0.00
5:53 am 05:53 Clear 32 0 20 -6.7 61 61 N 12 19 30.44 1031 10 16 0.00 0.00
6:53 am 06:53 Clear 30 -1.1 20 -6.7 66 66 NNW 8 13 30.47 1032 10 16 0.00 0.00
7:53 am 07:53 Sunny 28 -2.2 20 -6.7 72 72 WNW 6 9 30.52 1033 10 16 0.00 0.00
8:53 am 08:53 Sunny 37 2.8 20 -6.7 50 50 NNW 6 9 30.52 1034 10 16 0.00 0.00
9:53 am 09:53 Sunny 44 6.7 18 -7.8 35 35 NW 6 9 30.53 1034 10 16 0.00 0.00
10:53 am 10:53 Sunny 49 9.4 18 -7.8 29 29 Calm 30.52 1034 10 16 0.00 0.00
11:53 am 11:53 Sunny 51 10.6 18 -7.8 27 27 Calm 30.50 1033 10 16 0.00 0.00
12:53 pm 12:53 Sunny 53 11.7 18 -7.8 25 25 VRB 5 7 30.45 1031 10 16 0.00 0.00
1:53 pm 13:53 Sunny 55 12.8 17 -8.3 22 22 W 3 6 30.39 1029 10 16 0.00 0.00
2:53 pm 14:53 Sunny 57 13.9 16 -8.9 20 20 undefined N/A 30.35 1028 10 16 0.00 0.00
3:53 pm 15:53 Sunny 57 13.9 16 -8.9 20 20 VRB 5 7 30.32 1027 10 16 0.00 0.00
4:53 pm 16:53 Sunny 56 13.3 15 -9.4 20 20 W 6 9 30.31 1026 10 16 0.00 0.00
5:53 pm 17:53 Clear 51 10.6 18 -7.8 27 27 W 5 7 30.30 1026 10 16 0.00 0.00
6:53 pm 18:53 Clear 46 7.8 20 -6.7 35 35 W 3 6 30.30 1026 10 16 0.00 0.00
7:53 pm 19:53 Clear 42 5.6 21 -6.1 43 43 W 3 6 30.31 1026 10 16 0.00 0.00
8:53 pm 20:53 Clear 39 3.9 21 -6.1 48 48 SW 5 7 30.28 1025 10 16 0.00 0.00
9:53 pm 21:53 Clear 35 1.7 23 -5 61 61 W 8 13 30.26 1025 10 16 0.00 0.00
10:53 pm 22:53 Clear 34 1.1 24 -4.4 67 67 W 3 6 30.23 1024 10 16 0.00 0.00
11:53 pm 23:53 Clear 31 -0.6 24 -4.4 76 76 Calm 30.21 1023 10 16 0.00 0.00

Powered by AerisWeather